Location: D�pe
(52.6057°N, 8.1808°E)
Time: 07:47:18
(UTC+00:00)

FALCON 9 DEB - Pass Details

Date: 29 October 2020
Orbit: 382 x 396 km, 53.0° (Epoch: 01 December)

Event Time Altitude Azimuth Distance (km) Brightness Sun altitude
Rises 17:58:36 0° 252° (WSW) 2,316 8.2 -18.1°
Reaches altitude 10° 18:00:41 10° 251° (WSW) 1,456 6.9 -18.4°
Maximum altitude 18:03:56 78° 166° (SSE) 416 2.9 -18.9°
Enters shadow 18:04:04 75° 133° (SE) 419 2.8 -18.9°
